Hourly Weather Roundup
Issued by NWS Central Illinois

Home | Current Version | Previous Version | Text Only | Print | Product List | Glossary On
Versions: 1 2 3 4 5 6 7 8 9 10 11 12 13 14 15 16 17 18 19 20 21 22 23 24 25 26 27 28 29 30 31 32 33 34 35 36 37 38 39 40 41 42 43 44 45 46 47 48 49 50
000
NZUS43 KILX 251210
HWRILX

Area Weather Roundup
National Weather Service Lincoln IL
700 AM CDT MON SEP 25 2017

NOTE:  "FAIR" indicates few or no clouds below 12,000 feet, with
       no sigificant weather and/or obstructions to visibility.


CITY           SKY/WX    TMP DP  RH WIND       PRES   REMARKS
Bloomington    PTCLDY    66  61  84 S6        30.03S
6HR MIN TEMP:  64; 6HR MAX TEMP:  72;

Champaign      CLEAR     63  57  81 SE5       30.04R
6HR MIN TEMP:  63; 6HR MAX TEMP:  68;

Danville       CLEAR     59  57  94 CALM      30.01S
6HR MIN TEMP:  58; 6HR MAX TEMP:  63;

Decatur        CLEAR     61  59  93 E3        30.02R
6HR MIN TEMP:  60; 6HR MAX TEMP:  67;

Effingham      CLEAR     61  61  99 CALM      30.05R
6HR MIN TEMP:  61; 6HR MAX TEMP:  67;

Flora          PTCLDY    64  62  93 CALM      30.03S
6HR MIN TEMP:  63; 6HR MAX TEMP:  69;

Galesburg      CLEAR     65  60  82 SE3       30.00R
6HR MIN TEMP:  63; 6HR MAX TEMP:  70;

Jacksonville   CLEAR     64  62  91 SE3       30.00R
6HR MIN TEMP:  63; 6HR MAX TEMP:  72;

Lacon          MOCLDY    66  61  82 SE5       30.00R
6HR MIN TEMP:  65; 6HR MAX TEMP:  71;

Lawrenceville  PTCLDY    65  62  90 CALM      30.03R
6HR MIN TEMP:  65; 6HR MAX TEMP:  71;

Litchfield     FOG       64  63  96 CALM      30.03R VSB 3/4
6HR MIN TEMP:  63; 6HR MAX TEMP:  70;

$$


CITY           SKY/WX    TMP DP  RH WIND       PRES   REMARKS
Lincoln        PTCLDY    64  62  93 CALM      30.01S
6HR MIN TEMP:  64; 6HR MAX TEMP:  69;

Macomb         PTCLDY    60  58  95 CALM      30.01R
6HR MIN TEMP:  60; 6HR MAX TEMP:  64;

Mattoon        CLEAR     66  61  84 S3        30.02R
6HR MIN TEMP:  63; 6HR MAX TEMP:  70;

Mt Carmel AP   PTCLDY    62  60  96 CALM      30.03R FOG
6HR MIN TEMP:  62; 6HR MAX TEMP:  67;

Olney-Noble AP CLEAR     64  61  93 CALM      30.04R FOG
Paris AP       CLEAR     62  59  91 CALM      30.05R
6HR MIN TEMP:  60; 6HR MAX TEMP:  68;

Peoria         MOCLDY    68  62  81 CALM      30.01R
6HR MIN TEMP:  67; 6HR MAX TEMP:  75;

Pontiac        CLEAR     62  61  98 CALM      30.02R
6HR MIN TEMP:  62; 6HR MAX TEMP:  66;

Rantoul        CLEAR     66  60  81 CALM      30.04R
6HR MIN TEMP:  65; 6HR MAX TEMP:  70;

Robinson       PTCLDY    60  60  99 CALM      30.04R
6HR MIN TEMP:  59; 6HR MAX TEMP:  63;

Springfield    CLEAR     65  62  90 S5        30.01R
6HR MIN TEMP:  63; 6HR MAX TEMP:  74;

Taylorville    CLEAR     63  60  92 S5        30.02R
6HR MIN TEMP:  63; 6HR MAX TEMP:  70;

$$

...REGIONAL REPORTS...


CITY           SKY/WX    TMP DP  RH WIND       PRES   REMARKS
Chicago O`Hare PTCLDY    68  57  68 CALM      30.01R
Kankakee       CLEAR     60  58  93 SE5       30.04R
Moline         CLEAR     63  59  87 E6        29.97R
Mount Sterling CLEAR     63  62  95 CALM      29.99R
Mount Vernon     N/A     60  60 100 CALM      30.04R FOG
Pittsfield     PTCLDY    63  62  96 SE3       30.01R
Quincy         CLEAR     69  63  81 S3        29.98R
Rockford       MOCLDY    66  59  78 S5        30.01R
$$


CITY           SKY/WX    TMP DP  RH WIND       PRES   REMARKS
Burlington     CLEAR     67  64  90 S5        29.97R
Cedar Rapids   CLEAR     64  61  90 SE5       29.96R
Des Moines     MOCLDY    67  63  87 SE3       29.93R
Kirksville     PTCLDY    65  63  93 S3        29.98R
Ottumwa        PTCLDY    68  63  84 S7        29.95R
St Louis       PTCLDY    70  66  87 E6        30.02R
$$


CITY           SKY/WX    TMP DP  RH WIND       PRES   REMARKS
Terre Haute    PTCLDY    62  58  86 CALM      30.04R
Evansville     CLEAR     67  65  93 CALM      30.03R
Indianapolis   MOCLDY    67  57  70 CALM      30.05R
Lafayette      PTCLDY    61  59  93 CALM      30.04R
Madison        PTCLDY    64  61  90 S3        29.99R
Milwaukee      PTCLDY    70  61  73 SW7       30.00R
$$






USA.gov is the U.S. government's official web portal to all federal, state and local government web resources and services.